| time (UTC) | temp F | wind direction | speed knots | gust knots | rain 1hr in | rain 24hr in | rain mn in | humidity % | barometer mb |
| 20260510094652 | 68 | 181 | 4.3 | 9.6 | 0.00 | 0.00 | 0.00 | 79 | 1008.4 |
| 20260510093112 | 67 | 171 | 2.6 | 7.0 | 0.00 | 0.00 | 0.00 | 80 | 1008.3 |
| 20260510091549 | 67 | 166 | 3.5 | 7.0 | 0.00 | 0.00 | 0.00 | 80 | 1008.3 |
| 20260510090036 | 67 | 181 | 3.5 | 7.0 | 0.00 | 0.00 | 0.00 | 80 | 1008.4 |
| 20260510084535 | 67 | 169 | 3.5 | 7.0 | 0.00 | 0.00 | 0.00 | 79 | 1008.2 |
| 20260510083034 | 67 | 174 | 3.5 | 6.1 | 0.00 | 0.00 | 0.00 | 79 | 1008.0 |
| 20260510081532 | 67 | 175 | 3.5 | 6.1 | 0.00 | 0.00 | 0.00 | 79 | 1008.2 |
| 20260510080028 | 68 | 180 | 3.5 | 5.2 | 0.00 | 0.00 | 0.00 | 77 | 1008.2 |
| 20260510074527 | 68 | 181 | 3.5 | 6.1 | 0.00 | 0.00 | 0.00 | 77 | 1008.3 |
| 20260510073033 | 68 | 205 | 2.6 | 6.1 | 0.00 | 0.00 | 0.00 | 77 | 1008.4 |
| 20260510071623 | 68 | 205 | 3.5 | 7.0 | 0.00 | 0.00 | 0.00 | 77 | 1008.6 |
| 20260510070017 | 69 | 178 | 2.6 | 5.2 | 0.00 | 0.00 | 0.00 | 77 | 1008.7 |
| 20260510064506 | 69 | 170 | 2.6 | 6.1 | 0.00 | 0.00 | 0.00 | 76 | 1008.7 |
| 20260510063005 | 69 | 202 | 3.5 | 6.1 | 0.00 | 0.00 | 0.00 | 76 | 1008.9 |
| 20260510061501 | 70 | 172 | 2.6 | 6.1 | 0.00 | 0.00 | 0.00 | 75 | 1009.0 |
| 20260510060101 | 70 | 191 | 2.6 | 7.0 | 0.00 | 0.00 | 0.00 | 74 | 1009.0 |
| 20260510054556 | 71 | 171 | 5.2 | 8.7 | 0.00 | 0.00 | 0.00 | 73 | 1009.0 |
| 20260510053100 | 72 | 156 | 5.2 | 8.7 | 0.00 | 0.00 | 0.00 | 72 | 1009.1 |
| 20260510051553 | 72 | 168 | 3.5 | 6.1 | 0.00 | 0.00 | 0.00 | 72 | 1009.1 |
| 20260510050036 | 73 | 174 | 4.3 | 7.8 | 0.00 | 0.00 | 0.00 | 71 | 1009.1 |
| 20260510044535 | 73 | 165 | 4.3 | 7.8 | 0.00 | 0.00 | 0.00 | 72 | 1009.1 |
| 20260510043042 | 73 | 173 | 4.3 | 7.0 | 0.00 | 0.00 | 0.00 | 72 | 1009.2 |
| 20260510041531 | 73 | 178 | 2.6 | 4.3 | 0.00 | 0.00 | 0.00 | 70 | 1009.2 |
| 20260510040036 | 73 | 192 | 2.6 | 4.3 | 0.00 | 0.00 | 0.00 | 69 | 1009.1 |
| 20260510034524 | 74 | 169 | 1.7 | 4.3 | 0.00 | 0.00 | 0.00 | 67 | 1009.0 |
| 20260510033123 | 75 | 175 | 2.6 | 6.1 | 0.00 | 0.00 | 0.00 | 65 | 1009.0 |
| 20260510031522 | 76 | 174 | 3.5 | 7.0 | 0.00 | 0.00 | 0.00 | 63 | 1008.8 |
| 20260510030005 | 76 | 149 | 3.5 | 6.1 | 0.00 | 0.00 | 0.00 | 62 | 1008.7 |
| 20260510024502 | 77 | 162 | 2.6 | 5.2 | 0.00 | 0.00 | 0.00 | 60 | 1008.6 |
| 20260510023102 | 78 | 153 | 2.6 | 5.2 | 0.00 | 0.00 | 0.00 | 58 | 1008.5 |
| 20260510021559 | 79 | 134 | 1.7 | 4.3 | 0.00 | 0.00 | 0.00 | 56 | 1008.3 |
| 20260510020059 | 79 | 147 | 1.7 | 3.5 | 0.00 | 0.00 | 0.00 | 54 | 1008.1 |
| 20260510014556 | 81 | 155 | 1.7 | 4.3 | 0.00 | 0.00 | 0.00 | 51 | 1008.0 |
| 20260510013056 | 82 | 167 | 1.7 | 4.3 | 0.00 | 0.00 | 0.00 | 48 | 1007.8 |
| 20260510011555 | 84 | 161 | 1.7 | 6.1 | 0.00 | 0.00 | 0.00 | 45 | 1007.6 |
| 20260510010054 | 86 | 161 | 2.6 | 5.2 | 0.00 | 0.00 | 0.00 | 41 | 1007.6 |
| 20260510004543 | 87 | 162 | 4.3 | 7.8 | 0.00 | 0.00 | 0.00 | 37 | 1007.6 |
| 20260510003138 | 87 | 155 | 4.3 | 7.8 | 0.00 | 0.00 | 0.00 | 37 | 1007.5 |
| 20260510001542 | 88 | 126 | 3.5 | 8.7 | 0.00 | 0.00 | 0.00 | 38 | 1007.3 |
| 20260510000047 | 88 | 157 | 6.1 | 12.2 | 0.00 | 0.00 | 0.00 | 37 | 1007.2 |
| 20260509234536 | 90 | 179 | 3.5 | 7.8 | 0.00 | 0.00 | 0.00 | 36 | 1007.2 |
| 20260509233033 | 90 | 239 | 5.2 | 8.7 | 0.00 | 0.00 | 0.00 | 36 | 1007.3 |
| 20260509231531 | 89 | 173 | 1.7 | 8.7 | 0.00 | 0.00 | 0.00 | 38 | 1007.4 |
| 20260509230034 | 89 | 180 | 4.3 | 7.8 | 0.00 | 0.00 | 0.00 | 35 | 1007.6 |
| 20260509224517 | 90 | 138 | 5.2 | 10.4 | 0.00 | 0.00 | 0.00 | 36 | 1007.5 |
| 20260509223016 | 91 | 200 | 1.7 | 8.7 | 0.00 | 0.00 | 0.00 | 34 | 1007.5 |
| 20260509221518 | 91 | 193 | 3.5 | 9.6 | 0.00 | 0.00 | 0.00 | 35 | 1007.7 |
| 20260509220019 | 91 | 223 | 1.7 | 7.8 | 0.00 | 0.00 | 0.00 | 33 | 1007.7 |
| 20260509214510 | 91 | 178 | 4.3 | 10.4 | 0.00 | 0.00 | 0.00 | 34 | 1007.9 |
| 20260509213020 | 91 | 198 | 4.3 | 9.6 | 0.00 | 0.00 | 0.00 | 34 | 1008.1 |
| 20260509211508 | 91 | 139 | 5.2 | 7.0 | 0.00 | 0.00 | 0.00 | 33 | 1008.3 |
| 20260509210004 | 91 | 211 | 3.5 | 12.2 | 0.00 | 0.00 | 0.00 | 35 | 1008.6 |
| 20260509204551 | 90 | 169 | 2.6 | 13.0 | 0.00 | 0.00 | 0.00 | 36 | 1008.7 |
| 20260509203059 | 90 | 201 | 4.3 | 8.7 | 0.00 | 0.00 | 0.00 | 40 | 1008.9 |
| 20260509201546 | 91 | 217 | 2.6 | 8.7 | 0.00 | 0.00 | 0.00 | 40 | 1009.2 |
| 20260509200042 | 90 | 232 | 2.6 | 10.4 | 0.00 | 0.00 | 0.00 | 40 | 1009.4 |
| 20260509194540 | 89 | 215 | 2.6 | 10.4 | 0.00 | 0.00 | 0.00 | 41 | 1009.7 |
| 20260509193040 | 89 | 241 | 3.5 | 9.6 | 0.00 | 0.00 | 0.00 | 42 | 1009.8 |
| 20260509191551 | 90 | 217 | 4.3 | 9.6 | 0.00 | 0.00 | 0.00 | 41 | 1009.9 |
| 20260509190034 | 88 | 211 | 4.3 | 9.6 | 0.00 | 0.00 | 0.00 | 43 | 1010.2 |
| 20260509184532 | 87 | 215 | 4.3 | 9.6 | 0.00 | 0.00 | 0.00 | 47 | 1010.4 |
| 20260509183027 | 87 | 115 | 0.9 | 7.8 | 0.00 | 0.00 | 0.00 | 49 | 1010.6 |
| 20260509181516 | 87 | 226 | 2.6 | 7.8 | 0.00 | 0.00 | 0.00 | 49 | 1010.9 |
| 20260509180016 | 86 | 206 | 2.6 | 8.7 | 0.00 | 0.00 | 0.00 | 50 | 1011.2 |
| 20260509174520 | 85 | 223 | 3.5 | 9.6 | 0.00 | 0.00 | 0.00 | 49 | 1011.4 |
| 20260509173009 | 85 | 194 | 3.5 | 7.8 | 0.00 | 0.00 | 0.00 | 49 | 1011.3 |
| 20260509171506 | 84 | 173 | 2.6 | 7.0 | 0.00 | 0.00 | 0.00 | 54 | 1011.5 |
| 20260509170009 | 83 | 227 | 2.6 | 7.0 | 0.00 | 0.00 | 0.00 | 56 | 1011.7 |
| 20260509164544 | 83 | 242 | 0.9 | 4.3 | 0.00 | 0.00 | 0.00 | 60 | 1011.8 |
| 20260509163041 | 82 | 229 | 0.9 | 5.2 | 0.00 | 0.00 | 0.00 | 63 | 1011.8 |
| 20260509161526 | 81 | 188 | 2.6 | 6.1 | 0.00 | 0.00 | 0.00 | 1011.9 | |
| 20260509160023 | 80 | 209 | 1.7 | 5.2 | 0.00 | 0.00 | 0.00 | 64 | 1011.9 |
| 20260509154523 | 80 | 238 | 0.9 | 6.1 | 0.00 | 0.00 | 0.00 | 65 | 1012.2 |
| 20260509153022 | 79 | 217 | 2.6 | 6.1 | 0.00 | 0.00 | 0.00 | 65 | 1012.1 |
| 20260509151516 | 78 | 241 | 1.7 | 4.3 | 0.00 | 0.00 | 0.00 | 67 | 1012.3 |
| 20260509150013 | 77 | 245 | 1.7 | 4.3 | 0.00 | 0.00 | 0.00 | 70 | 1012.5 |
| 20260509144508 | 75 | 242 | 0.0 | 4.3 | 0.00 | 0.00 | 0.00 | 74 | 1012.7 |
| 20260509143419 | 82 | 204 | 0.9 | 0.0 | 0.00 | 0.34 | 0.00 | ||
| 20260509143007 | 74 | 200 | 0.0 | 4.3 | 0.00 | 0.00 | 0.00 | 77 | 1012.8 |
| 20260509141551 | 72 | 171 | 0.0 | 3.5 | 0.00 | 0.00 | 0.00 | 78 | 1012.8 |
| 20260509140050 | 72 | 166 | 0.0 | 4.3 | 0.00 | 0.00 | 0.00 | 79 | 1012.6 |
| 20260509135918 | 77 | 169 | 4.3 | 1.7 | 0.00 | 0.34 | 0.00 | ||
| 20260509134549 | 71 | 224 | 0.0 | 1.7 | 0.00 | 0.00 | 0.00 | 81 | 1012.6 |
| 20260509133047 | 68 | 32 | 0.0 | 1.7 | 0.00 | 0.00 | 0.00 | 84 | 1012.5 |
| 20260509131546 | 65 | 32 | 0.0 | 0.9 | 0.00 | 0.00 | 0.00 | 85 | 1012.4 |
| 20260509130053 | 63 | 32 | 0.0 | 0.0 | 0.00 | 0.00 | 0.00 | 86 | 1012.4 |
| 20260509124552 | 61 | 32 | 0.0 | 0.9 | 0.00 | 0.00 | 0.00 | 86 | 1012.5 |
| 20260509123043 | 60 | 32 | 0.0 | 1.7 | 0.00 | 0.00 | 0.00 | 85 | 1012.4 |
| 20260509121533 | 60 | 32 | 0.0 | 1.7 | 0.00 | 0.00 | 0.00 | 85 | 1011.8 |
| 20260509120031 | 60 | 46 | 0.0 | 2.6 | 0.00 | 0.00 | 0.00 | 85 | 1011.9 |
| 20260509114529 | 60 | 90 | 0.9 | 3.5 | 0.00 | 0.00 | 0.00 | 85 | 1011.9 |
| 20260509113030 | 61 | 123 | 0.9 | 2.6 | 0.00 | 0.00 | 0.00 | 85 | 1011.6 |
| 20260509111528 | 61 | 175 | 3.5 | 7.0 | 0.00 | 0.00 | 0.00 | 85 | 1011.3 |
| 20260509110027 | 60 | 173 | 3.5 | 7.0 | 0.00 | 0.00 | 0.00 | 85 | 1011.2 |
| 20260509104526 | 60 | 159 | 2.6 | 4.3 | 0.00 | 0.00 | 0.00 | 85 | 1011.3 |
| 20260509103024 | 60 | 247 | 0.0 | 0.0 | 0.00 | 0.00 | 0.00 | 84 | 1011.3 |
| 20260509101516 | 61 | 247 | 0.0 | 1.7 | 0.00 | 0.00 | 0.00 | 85 | 1011.2 |
| 20260509100011 | 61 | 236 | 2.6 | 5.2 | 0.00 | 0.00 | 0.00 | 85 | 1011.0 |